Location: *
(47.6569°N, 7.4256°E)
Time: 21:15:11
(UTC+00:00)

USA 215 - Pass Details

Date: 14 December 2019
Orbit: 1099 x 1109 km, 123.0° (Epoch: 03 January)

Event Time Altitude Azimuth Distance (km) Brightness Sun altitude
Exits shadow 16:07:16 - 56° (ENE) 3,368 5.1 -4.9°
Reaches altitude 10° 16:08:21 10° 58° (ENE) 2,965 4.8 -5.1°
Maximum altitude 16:14:47 57° 137° (SE) 1,277 3.6 -6.0°
Drops below altitude 10° 16:21:12 10° 216° (SW) 2,959 6.7 -7.0°
Sets 16:23:44 0° 220° (SW) 3,915 7.6 -7.4°
